Temp
84 100 105 100 86 90 86 89 97 93 95 100 102 97 95 94 86 82 105 106 106 104 95 90 80 80 81 81 80 80 79 79 79 79 79 79 79 80 80 80 80 81 81 82 81 81 81 81 81
95 101 101 96 84 81 86 95 90 96 99 101 101 100 98 89 96 98 101 103 106 104 96 94 80 80 81 81 80 80 79 79 79 79 79 79 79 80 80 80 80 81 81 81 81 81 81 81 81
92 101 93 91 86 82 86 94 95 97 99 98 97 100 96 89 97 97 100 100 104 102 97 93 80 80 81 80 80 79 80 79 80 79 79 79 79 79 79 80 80 81 81 81 81 81 81 81 80
98 99 96 84 82 91 92 94 95 95 98 99 97 93 97 99 97 102 103 101 102 101 100 82 80 80 80 80 80 79 80 79 79 79 79 79 79 79 79 79 80 81 81 81 81 80 80 80 80
99 96 84 84 85 92 94 95 94 93 95 96 96 92 94 99 102 104 103 102 102 101 100 91 80 80 80 80 80 79 79 79 79 79 79 79 79 79 79 79 80 81 81 81 80 80 79 80 80
90 94 81 80 86 94 93 94 93 93 96 96 93 92 95 103 100 103 104 105 106 103 102 93 81 79 79 79 79 79 79 79 79 79 79 79 79 79 79 79 80 80 80 80 80 79 79 79 79
86 87 82 84 86 89 90 94 90 92 91 92 96 88 98 100 102 104 104 105 106 106 104 97 91 85 79 79 78 78 78 78 78 78 78 78 78 79 79 79 79 80 80 79 79 79 79 79 79
90 89 81 85 84 86 89 88 91 89 89 98 96 89 92 97 102 107 108 106 106 106 105 101 95 93 90 89 79 78 78 78 78 78 78 78 78 78 79 78 79 79 79 79 78 78 78 78 78
92 80 79 84 86 88 89 85 94 93 88 93 95 94 98 100 102 103 104 104 105 104 104 104 99 95 95 97 87 79 78 78 78 79 78 78 87 86 84 83 78 79 79 78 78 78 78 78 78
84 81 82 86 87 85 88 84 87 86 87 89 93 98 99 99 99 97 100 101 101 97 100 103 98 98 97 100 92 89 89 88 86 87 84 88 90 89 91 86 79 78 78 78 78 78 78 78 91
86 79 86 85 85 84 83 84 89 85 81 88 88 93 95 96 95 96 99 101 101 101 94 96 93 97 98 99 94 93 93 91 89 89 88 88 91 91 91 90 87 85 80 86 83 83 86 88 92
77 85 83 84 84 82 81 86 83 85 85 92 92 93 93 92 93 96 98 100 100 99 98 91 89 92 94 100 99 96 95 93 92 91 89 89 91 91 91 93 91 88 89 88 89 91 89 91 92
78 83 82 83 83 84 84 81 81 83 89 92 92 91 90 91 92 95 97 98 98 97 95 96 91 84 88 91 98 96 96 95 95 94 91 92 91 91 92 93 94 92 94 91 92 93 91 91 92
82 80 81 83 83 83 79 81 82 85 89 87 87 87 89 90 92 94 94 94 94 96 95 95 95 85 84 83 90 91 95 96 95 95 94 91 92 91 92 91 92 94 94 95 93 93 92 91 93
79 73 79 81 82 79 81 73 76 86 88 85 86 87 88 90 92 91 93 93 94 95 94 92 91 91 91 89 88 88 93 96 95 95 93 91 91 90 89 91 91 93 93 92 92 91 91 91 93
74 75 70 80 78 79 76 66 80 86 84 82 84 85 87 88 91 93 93 93 93 93 92 93 96 95 91 90 91 91 88 88 95 95 95 92 91 90 88 91 90 92 91 91 90 90 89 90 91
76 68 71 74 81 76 75 69 79 86 84 81 82 84 85 86 88 90 92 92 93 92 91 90 90 90 90 90 91 90 90 86 86 93 95 91 90 90 89 90 90 90 91 90 89 88 85 85 88
66 67 70 69 78 78 74 73 79 83 83 81 83 84 85 86 87 90 92 93 92 92 90 89 89 87 87 89 90 92 93 93 92 89 89 91 91 90 88 89 89 89 90 89 88 85 87 88 88
70 67 66 72 78 73 71 72 76 81 81 81 82 83 84 85 90 91 91 92 92 91 88 86 85 84 85 87 90 90 89 91 90 88 84 87 90 88 86 88 87 87 86 86 84 86 84 86 89
69 66 66 73 77 73 70 69 75 80 80 82 81 82 83 85 88 89 89 89 88 87 86 84 84 83 84 86 86 91 90 90 91 87 82 82 84 85 86 84 86 84 87 83 85 83 84 84 83
68 66 66 65 70 72 70 68 73 79 81 82 82 83 83 82 82 85 86 86 87 85 84 85 83 83 83 83 86 87 88 85 85 84 81 84 82 85 82 84 85 84 85 85 82 82 80 82 85
62 72 67 64 62 58 71 54 67 75 76 78 80 81 81 82 84 84 85 84 85 85 86 85 84 83 84 83 82 81 85 82 84 84 86 86 84 83 80 80 83 85 85 84 82 84 82 82 84
62 69 64 64 61 61 63 60 67 72 72 74 77 79 81 82 83 83 84 84 84 85 84 84 83 81 81 81 82 84 82 87 88 88 83 82 83 84 83 80 83 83 85 84 83 81 81 82 84
70 65 66 66 64 53 63 63 64 70 70 73 77 78 79 81 81 82 84 83 83 85 85 82 81 79 81 81 81 81 80 83 85 86 85 84 80 82 81 79 80 82 82 83 83 82 81 81 83
67 61 51 51 55 53 65 59 64 72 75 74 73 75 77 78 77 79 80 81 81 82 82 81 80 77 79 79 80 81 81 81 80 81 81 78 77 81 77 76 76 79 80 83 84 82 82 82 82
61 59 49 40 46 54 63 55 65 74 76 75 76 76 76 77 78 78 78 79 79 80 79 79 78 77 78 78 78 79 80 78 81 82 82 80 81 82 80 81 78 80 80 81 81 84 82 81 79
61 56 63 52 55 50 58 65 70 72 72 74 74 74 72 73 75 76 79 79 79 79 78 78 77 76 76 77 77 77 78 78 78 79 79 79 80 81 81 80 78 77 80 79 80 83 79 79 73
62 66 48 49 35 39 53 55 58 60 66 69 68 69 70 72 73 74 75 76 77 78 79 78 76 76 76 77 77 79 79 79 79 80 77 79 79 81 81 80 78 78 79 76 80 77 76 67 65
60 56 53 52 47 37 39 51 67 64 68 64 64 66 67 68 69 72 73 74 75 76 77 76 76 75 76 77 77 77 77 78 79 79 81 79 80 80 80 80 79 76 78 76 74 68 68 64 67
64 59 55 37 41 45 42 44 68 68 66 66 66 67 68 69 69 70 70 71 72 73 74 74 74 74 75 76 76 75 75 76 76 77 79 82 80 81 81 81 79 77 72 68 63 64 63 64 63
MSLP
1008.58 1006.80 1005.95 1004.69 1002.92 999.76 996.96 995.48 995.91 996.26 996.46 997.65 997.82 997.98 998.20 999.01 1000.05 1000.16 1001.18 1001.75 1001.67 1002.79 1004.72 1005.92 1006.74 1007.11 1007.44 1007.62 1008.15 1008.46 1008.82 1009.27 1009.49 1009.85 1010.22 1010.56 1010.90 1011.21 1011.41 1011.62 1011.77 1011.88 1012.15 1012.39 1012.61 1012.86 1013.07 1013.29 1013.50
1007.96 1006.30 1005.32 1003.26 1001.02 997.87 995.86 995.51 996.45 996.45 997.53 998.31 998.04 998.17 998.03 999.82 1001.17 1001.16 1001.42 1002.43 1002.11 1002.97 1004.66 1005.57 1006.81 1007.45 1007.71 1007.96 1008.28 1008.71 1008.98 1009.50 1009.87 1010.05 1010.40 1010.80 1011.11 1011.43 1011.75 1012.00 1012.06 1012.21 1012.42 1012.62 1012.82 1013.04 1013.25 1013.44 1013.67
1008.05 1006.20 1004.29 1001.56 999.70 997.65 995.72 995.71 996.40 997.36 998.47 998.67 998.61 999.30 999.70 1001.05 1001.65 1002.14 1002.42 1002.71 1002.57 1003.20 1004.58 1005.49 1006.81 1007.49 1007.67 1008.27 1008.39 1008.83 1009.19 1009.62 1010.04 1010.39 1010.71 1011.00 1011.31 1011.63 1011.96 1012.18 1012.39 1012.43 1012.64 1012.82 1012.99 1013.19 1013.42 1013.63 1013.81
1006.25 1004.79 1003.58 1001.39 999.03 997.45 996.95 997.23 998.06 998.57 998.49 999.12 999.53 999.41 1001.09 1002.21 1002.25 1002.41 1002.56 1002.74 1002.76 1003.52 1004.34 1006.20 1006.97 1007.66 1007.82 1008.29 1008.56 1008.94 1009.42 1009.85 1010.18 1010.51 1010.90 1011.17 1011.33 1011.56 1011.89 1012.14 1012.37 1012.55 1012.68 1012.93 1013.14 1013.36 1013.56 1013.81 1013.97
1005.90 1003.78 1001.83 1000.05 998.72 997.93 998.00 998.70 999.69 999.25 999.10 999.42 1000.01 999.69 1000.44 1001.98 1002.52 1002.36 1002.31 1002.85 1002.95 1003.61 1004.33 1006.10 1007.05 1007.76 1008.06 1008.43 1008.64 1009.03 1009.50 1010.00 1010.34 1010.71 1010.97 1011.27 1011.52 1011.74 1011.93 1012.17 1012.35 1012.57 1012.71 1012.89 1013.17 1013.36 1013.53 1013.77 1014.00
1004.59 1003.05 1001.12 999.28 998.04 997.38 998.35 999.53 1000.32 1000.03 999.83 1000.05 1000.39 1000.76 1000.65 1001.89 1002.52 1002.48 1002.52 1002.23 1002.62 1003.26 1004.06 1005.79 1007.22 1007.73 1008.21 1008.51 1008.76 1009.07 1009.51 1009.99 1010.29 1010.55 1010.92 1011.35 1011.70 1011.87 1012.05 1012.34 1012.43 1012.66 1012.90 1013.01 1013.22 1013.53 1013.71 1013.87 1014.04
1004.38 1002.25 1000.68 999.51 998.37 997.78 999.07 1000.38 1000.95 1000.58 1000.77 1000.71 1001.40 1001.29 1000.63 1001.60 1002.76 1002.44 1002.34 1002.58 1002.45 1002.86 1003.82 1005.36 1006.70 1007.56 1008.28 1008.74 1008.95 1009.21 1009.51 1009.91 1010.19 1010.52 1010.82 1011.16 1011.64 1012.00 1012.27 1012.40 1012.51 1012.71 1013.05 1013.26 1013.39 1013.64 1013.84 1013.96 1014.10
1004.34 1002.79 1001.12 999.95 999.02 998.79 1000.24 1001.37 1001.86 1002.23 1001.77 1001.91 1002.36 1001.18 1000.71 1002.03 1002.85 1002.27 1001.99 1002.19 1002.32 1002.65 1003.44 1004.38 1005.95 1006.98 1007.65 1008.35 1009.12 1009.49 1009.81 1010.06 1010.28 1010.52 1010.84 1011.28 1011.76 1012.12 1012.34 1012.62 1012.79 1012.97 1013.21 1013.42 1013.53 1013.72 1013.90 1014.01 1014.13
1004.99 1003.22 1000.96 1000.00 999.48 999.25 1001.19 1001.99 1001.92 1002.81 1003.15 1002.68 1002.24 1002.28 1002.23 1002.64 1002.91 1002.52 1001.87 1001.58 1001.80 1002.30 1002.97 1003.55 1004.95 1006.24 1006.74 1007.01 1008.42 1009.39 1009.85 1010.17 1010.46 1010.71 1011.04 1011.28 1011.19 1011.66 1012.00 1012.13 1012.44 1012.94 1013.26 1013.47 1013.71 1013.79 1013.99 1014.10 1014.06
1004.67 1002.69 1001.25 1001.41 1001.37 1001.35 1001.69 1002.91 1003.01 1003.18 1002.95 1002.33 1002.03 1002.08 1002.45 1002.70 1002.84 1002.79 1002.28 1001.65 1001.88 1002.86 1002.95 1003.32 1004.22 1005.25 1006.11 1005.92 1007.36 1008.51 1008.92 1009.46 1009.86 1010.01 1010.52 1010.62 1010.44 1010.76 1010.89 1011.47 1012.38 1012.79 1013.22 1013.42 1013.64 1013.72 1013.85 1014.01 1012.99
1003.83 1003.10 1002.03 1002.52 1003.22 1003.56 1003.53 1003.64 1003.65 1003.28 1002.89 1002.67 1002.30 1002.12 1002.59 1002.90 1003.19 1002.90 1002.41 1002.20 1002.16 1002.33 1003.69 1003.82 1004.18 1004.82 1005.25 1005.51 1006.53 1007.60 1007.85 1008.45 1009.03 1009.34 1009.68 1010.04 1009.83 1010.07 1010.56 1010.93 1011.85 1012.30 1012.98 1012.86 1013.26 1013.45 1013.23 1012.80 1012.15
1004.72 1003.55 1003.95 1003.80 1003.92 1004.39 1004.21 1003.99 1003.62 1003.45 1003.24 1003.14 1003.08 1003.13 1003.19 1003.13 1003.18 1002.73 1002.41 1002.28 1002.39 1003.01 1003.23 1004.23 1004.64 1004.92 1005.28 1005.02 1005.54 1006.49 1006.80 1007.35 1007.85 1008.39 1009.00 1009.32 1009.32 1009.39 1009.76 1009.72 1010.35 1011.19 1011.43 1011.61 1011.86 1011.91 1012.27 1012.02 1011.83
1004.78 1004.00 1004.41 1004.70 1004.65 1004.49 1004.31 1004.00 1003.71 1003.20 1003.15 1003.24 1003.21 1003.45 1003.32 1003.11 1003.09 1002.95 1002.91 1002.94 1003.12 1003.20 1003.90 1004.01 1004.62 1005.21 1005.34 1005.56 1004.95 1005.63 1005.90 1006.38 1006.79 1007.31 1008.10 1008.38 1008.63 1008.73 1009.10 1009.14 1009.19 1009.83 1010.04 1010.69 1010.65 1010.82 1011.31 1011.54 1011.46
1004.80 1005.02 1004.72 1004.57 1004.38 1004.26 1004.14 1003.64 1003.51 1002.92 1002.95 1003.22 1003.34 1003.41 1003.25 1003.07 1002.82 1002.75 1002.86 1002.93 1003.28 1003.20 1003.65 1004.31 1004.29 1004.85 1005.59 1005.77 1005.49 1005.31 1005.52 1005.50 1006.09 1006.28 1006.86 1007.82 1007.89 1008.11 1008.52 1008.91 1008.99 1009.05 1009.33 1009.40 1009.99 1010.28 1010.53 1011.05 1011.08
1005.79 1005.22 1004.53 1003.97 1004.05 1004.28 1004.68 1003.83 1002.91 1002.59 1002.52 1002.66 1002.76 1002.85 1002.94 1002.81 1002.83 1002.69 1002.80 1002.76 1003.03 1003.29 1003.79 1004.24 1004.85 1004.63 1004.65 1005.31 1005.79 1005.62 1005.34 1005.52 1005.56 1005.84 1006.18 1007.12 1007.49 1007.66 1008.01 1008.36 1008.52 1008.67 1008.90 1009.18 1009.60 1009.98 1010.45 1010.66 1010.60
1005.69 1005.00 1003.62 1002.62 1004.08 1004.50 1004.90 1003.12 1002.49 1002.30 1002.50 1002.58 1002.43 1002.53 1002.43 1002.45 1002.37 1002.26 1002.37 1002.58 1002.90 1003.28 1003.53 1003.84 1004.20 1003.95 1004.50 1004.64 1005.06 1005.34 1005.27 1005.17 1005.10 1005.38 1005.55 1006.43 1007.12 1007.39 1007.95 1007.89 1008.26 1008.27 1008.67 1009.25 1009.59 1009.94 1010.16 1010.27 1010.27
1003.67 1003.33 1002.40 1002.37 1002.75 1003.93 1004.02 1002.74 1002.55 1002.25 1002.02 1001.79 1001.95 1001.95 1001.98 1001.96 1001.81 1001.79 1002.02 1002.25 1002.51 1002.87 1003.31 1003.78 1004.30 1004.48 1004.40 1004.19 1004.55 1004.89 1004.79 1004.93 1004.95 1004.70 1005.06 1005.60 1006.55 1007.15 1007.38 1007.71 1007.79 1007.96 1008.34 1008.88 1009.46 1009.72 1010.07 1010.03 1009.93
1003.63 1003.53 1003.10 1002.81 1002.66 1002.74 1002.72 1001.97 1001.85 1001.50 1001.27 1000.97 1000.83 1000.84 1000.80 1000.70 1000.72 1001.06 1001.35 1001.63 1001.93 1002.30 1002.80 1003.39 1003.83 1004.20 1004.40 1004.17 1003.78 1004.05 1004.03 1004.05 1004.25 1004.47 1004.70 1004.87 1005.70 1006.40 1007.21 1007.47 1007.53 1007.74 1008.12 1008.43 1009.11 1009.55 1009.81 1009.64 1009.73
1005.33 1004.68 1003.78 1003.22 1002.98 1002.82 1002.48 1001.68 1001.37 1000.69 1000.34 1000.09 999.98 999.96 999.80 999.73 999.92 1000.34 1000.69 1000.98 1001.36 1001.78 1002.41 1003.04 1003.53 1003.97 1004.14 1003.78 1003.08 1002.84 1003.08 1003.11 1003.50 1004.34 1004.47 1004.59 1005.09 1005.88 1006.57 1006.95 1007.24 1007.59 1007.74 1008.14 1008.80 1009.18 1009.43 1009.31 1009.08
1005.45 1004.72 1003.86 1003.12 1002.85 1002.87 1002.32 1001.11 1000.63 999.54 999.29 999.29 999.35 999.51 999.52 999.44 999.41 999.72 1000.29 1000.84 1001.38 1001.89 1002.41 1003.04 1003.40 1003.67 1003.79 1003.56 1003.00 1002.21 1002.16 1002.93 1003.04 1004.05 1004.44 1004.59 1004.83 1005.53 1006.15 1006.76 1006.62 1007.23 1007.39 1007.86 1008.01 1008.51 1008.95 1009.14 1009.15
1005.17 1004.65 1004.11 1003.81 1003.72 1003.26 1001.83 1000.06 999.19 998.71 998.65 999.17 999.39 999.50 999.78 999.83 999.92 1000.02 1000.50 1000.93 1001.40 1001.90 1002.29 1002.43 1002.94 1003.09 1003.30 1003.29 1002.78 1002.56 1002.35 1002.89 1002.86 1003.72 1004.28 1004.57 1004.91 1005.07 1005.64 1006.28 1006.30 1006.44 1006.86 1006.99 1007.64 1008.06 1008.39 1008.42 1008.68
1005.27 1005.07 1005.13 1004.86 1004.07 1002.31 1001.68 1000.07 998.91 998.38 998.21 998.85 999.05 999.32 999.85 999.94 999.92 1000.30 1000.66 1001.09 1001.65 1001.94 1002.26 1002.34 1002.55 1002.71 1002.86 1002.98 1002.65 1002.05 1001.65 1002.26 1002.65 1003.06 1003.25 1003.57 1004.38 1004.74 1005.23 1005.65 1006.00 1005.96 1006.47 1006.24 1007.11 1007.43 1007.75 1008.03 1007.44
1006.45 1006.25 1006.03 1005.20 1004.03 1002.95 1001.51 1000.32 997.95 998.11 997.80 998.27 999.37 999.81 999.92 1000.18 1000.36 1000.55 1000.99 1001.38 1002.14 1002.23 1002.34 1002.56 1002.67 1002.79 1002.84 1002.74 1002.37 1001.96 1001.66 1001.34 1001.85 1001.96 1002.49 1003.31 1003.75 1004.11 1004.57 1005.09 1005.25 1005.65 1005.83 1005.91 1006.09 1006.81 1007.28 1007.71 1007.54
1006.92 1006.64 1005.44 1004.03 1003.06 1001.64 999.73 998.85 997.70 997.13 997.91 998.80 999.64 1000.10 1000.50 1000.73 1001.08 1001.34 1001.56 1001.87 1002.19 1002.17 1002.22 1002.72 1002.92 1003.00 1002.81 1002.36 1002.08 1001.92 1001.77 1001.31 1001.19 1001.35 1001.70 1002.49 1003.31 1003.73 1004.04 1004.44 1004.78 1005.03 1005.36 1005.53 1005.81 1006.34 1006.76 1007.08 1007.44
1006.45 1006.21 1004.64 1002.53 1000.78 999.68 998.99 999.48 998.18 998.36 998.56 999.52 1000.48 1000.92 1001.35 1001.84 1002.21 1001.96 1001.83 1001.60 1002.20 1002.27 1002.34 1002.95 1002.92 1003.12 1003.03 1002.57 1002.09 1001.62 1001.41 1001.52 1001.84 1001.84 1001.89 1002.42 1002.80 1002.90 1003.48 1004.02 1004.31 1004.53 1004.88 1005.21 1005.20 1005.54 1005.96 1006.57 1006.89
1007.15 1007.16 1006.20 1004.06 1002.71 1000.78 999.92 998.93 997.72 998.49 999.20 1000.31 1000.94 1001.15 1001.82 1001.84 1001.95 1002.22 1002.47 1002.66 1002.76 1002.75 1002.75 1002.99 1003.17 1003.06 1003.02 1002.80 1002.41 1002.00 1001.38 1001.65 1001.55 1001.43 1001.58 1002.11 1002.07 1002.24 1002.69 1003.03 1003.54 1003.91 1004.28 1004.79 1005.21 1005.35 1005.58 1006.53 1006.95
1006.97 1007.05 1006.88 1006.44 1005.20 1003.25 1001.19 999.02 998.36 999.07 999.83 1000.09 1000.64 1001.39 1002.23 1002.58 1002.48 1002.35 1002.20 1002.25 1002.41 1002.53 1002.57 1002.82 1002.95 1002.99 1003.01 1002.68 1002.49 1002.30 1001.80 1001.45 1001.47 1001.13 1001.26 1001.34 1001.79 1001.98 1002.15 1002.54 1002.81 1003.25 1003.91 1003.65 1004.49 1005.25 1005.61 1006.52 1007.29
1007.92 1007.77 1007.84 1007.89 1006.79 1004.27 1001.90 1000.39 999.34 1000.63 1000.53 1000.85 1001.86 1002.62 1003.13 1003.35 1003.41 1003.27 1003.03 1002.78 1002.62 1002.40 1002.25 1002.30 1002.67 1002.59 1002.57 1002.49 1002.26 1001.90 1001.49 1001.33 1001.00 1000.82 1001.27 1001.17 1001.30 1001.38 1001.57 1001.85 1002.19 1002.72 1003.14 1003.59 1003.34 1003.78 1005.77 1007.18 1007.90
1007.09 1007.65 1008.56 1008.78 1008.47 1006.78 1004.38 1001.77 1000.17 1000.97 1001.14 1002.15 1003.48 1003.82 1003.76 1003.79 1003.81 1003.65 1003.36 1003.15 1002.87 1002.44 1002.04 1001.95 1001.97 1002.08 1001.80 1001.77 1001.67 1001.58 1001.46 1001.15 1000.90 1000.68 1000.32 1000.89 1000.84 1000.97 1001.22 1001.32 1001.68 1002.00 1002.53 1003.10 1002.19 1003.72 1006.33 1007.13 1008.14
1007.33 1007.49 1008.20 1009.53 1008.59 1007.83 1006.56 1003.04 1003.09 1001.78 1002.55 1002.78 1003.14 1003.69 1004.14 1004.30 1004.24 1004.25 1004.01 1003.65 1003.06 1002.37 1001.89 1001.69 1001.64 1001.50 1001.36 1001.17 1001.21 1001.12 1001.12 1001.10 1000.73 1000.45 1000.24 999.84 1000.14 1000.54 1000.50 1000.88 1001.36 1001.76 1002.18 1003.18 1004.11 1005.79 1006.64 1007.31 1008.54
Wind_Speed
20 14 8 9 9 9 16 4 6 5 7 11 8 7 7 18 10 7 8 12 2 15 18 16 11 12 13 16 15 15 15 14 15 15 15 15 14 14 13 12 11 12 12 12 11 10 9 9 8
13 11 8 9 10 13 12 10 7 1 11 7 5 10 3 15 12 3 11 11 3 15 15 17 13 11 13 14 15 14 15 14 13 15 15 14 14 13 12 11 10 11 11 11 10 9 8 9 9
14 11 10 11 13 14 13 6 6 8 3 6 6 7 8 7 10 8 11 5 6 14 15 15 15 13 15 13 15 14 14 14 14 14 14 14 14 13 12 10 9 11 10 10 10 9 8 8 8
7 7 7 12 19 16 11 9 10 7 2 1 6 3 10 8 6 10 8 3 7 12 14 20 15 12 14 14 15 14 14 14 14 15 14 14 14 14 13 11 10 10 11 10 9 9 8 8 8
9 9 12 18 18 19 1 6 6 10 5 6 7 6 3 7 7 8 6 3 10 12 14 16 15 12 13 14 15 15 15 14 14 14 14 14 13 12 13 12 11 10 11 10 9 9 8 8 7
9 5 14 16 18 15 5 1 8 11 10 7 5 7 1 8 8 8 7 4 9 13 14 16 14 13 12 14 15 15 15 15 15 15 15 13 12 13 13 11 11 10 10 10 9 8 8 7 7
14 13 16 20 21 9 7 6 10 8 6 7 9 9 5 8 9 6 3 1 5 11 13 15 16 14 12 11 12 14 15 15 15 15 15 15 14 12 12 11 11 10 9 9 9 9 8 8 7
9 11 21 19 14 18 9 1 2 8 9 11 6 7 4 12 7 10 0 3 7 10 12 16 15 16 15 14 12 11 13 14 14 15 15 14 13 11 11 9 8 8 9 9 9 9 8 8 7
9 10 14 20 19 9 12 5 7 2 10 13 8 10 10 7 9 8 9 6 5 8 10 12 17 16 16 17 15 12 14 12 12 12 12 12 11 13 15 13 15 9 9 9 8 8 8 7 8
12 12 17 10 11 7 8 4 10 12 14 13 12 12 9 7 8 10 9 8 4 3 7 12 14 16 15 13 16 14 14 12 12 13 14 11 12 12 13 12 13 12 10 9 9 9 8 9 9
8 14 9 7 6 8 10 12 13 16 15 15 14 10 11 10 11 13 11 8 9 3 8 8 8 11 16 14 13 9 9 9 10 14 13 13 10 10 10 9 9 9 11 9 10 9 8 11 10
11 12 8 12 5 10 14 15 16 17 18 16 17 15 15 16 13 14 12 10 6 4 5 8 5 12 12 10 11 11 11 11 10 13 15 10 8 9 9 9 11 10 10 11 11 8 9 11 11
12 14 5 10 13 15 16 17 19 20 17 17 16 16 17 17 16 15 11 11 10 7 8 7 7 6 8 13 10 11 12 12 13 13 15 13 12 9 10 9 9 11 10 11 10 10 9 10 9
9 9 13 14 15 15 17 18 16 14 10 12 11 15 15 15 17 13 13 12 13 10 6 7 11 12 8 6 13 7 9 11 12 12 14 17 12 9 11 10 10 10 10 10 9 9 8 8 10
9 15 16 17 12 10 12 17 20 18 16 15 18 16 16 17 16 17 16 15 14 10 11 8 10 12 13 13 13 10 9 12 12 12 13 16 13 11 12 11 10 10 9 7 7 7 7 9 9
13 15 14 10 8 12 7 17 16 9 9 16 17 15 17 18 20 19 18 17 16 14 14 11 10 9 10 11 11 12 10 8 12 12 12 16 15 13 12 10 11 10 9 9 9 8 8 9 8
14 12 8 11 2 8 13 17 21 19 17 19 19 20 19 21 22 21 20 19 17 15 13 12 12 14 11 12 13 13 15 9 9 10 12 16 16 16 11 11 11 10 9 9 9 9 7 7 8
18 16 16 15 13 11 18 23 20 18 19 20 20 20 21 20 21 19 19 19 18 14 11 10 10 11 10 11 11 13 13 13 12 10 10 14 14 16 12 12 10 11 10 10 9 9 9 9 9
14 16 19 18 16 17 19 22 23 20 20 21 21 20 21 21 19 16 14 15 16 14 10 9 12 12 9 11 13 13 14 12 9 8 7 11 14 16 14 12 12 10 11 11 12 10 10 9 9
15 18 20 17 14 15 21 26 24 22 11 11 13 14 15 16 17 14 12 11 11 12 12 11 12 11 11 11 10 11 10 12 12 11 10 6 10 14 14 13 12 13 11 12 11 11 9 8 7
15 17 19 19 19 21 26 23 20 12 3 7 8 8 8 10 14 8 10 9 8 10 12 12 12 12 11 12 11 11 9 8 8 11 8 11 12 14 13 15 13 13 13 12 11 13 13 11 11
17 15 13 17 18 17 17 19 24 20 8 8 7 5 10 15 8 7 7 6 8 7 8 9 10 10 11 11 13 15 13 14 13 13 13 11 13 13 12 14 15 11 13 12 14 12 13 12 11
15 14 18 21 21 21 20 14 18 6 15 3 3 8 7 2 6 6 9 8 9 8 6 5 6 8 10 12 12 12 13 12 13 13 13 14 13 16 16 14 16 14 12 13 13 15 14 10 11
11 16 21 24 18 17 23 18 13 6 13 8 8 9 10 12 14 12 12 6 10 8 7 7 7 8 8 9 13 13 15 12 11 11 11 11 10 12 15 14 14 15 13 12 12 13 15 13 13
13 12 13 10 11 13 5 8 9 13 12 6 11 9 10 10 11 11 13 9 10 12 7 8 8 9 9 9 11 13 12 11 11 11 10 9 9 11 12 13 13 13 14 13 12 13 13 14 10
16 12 10 18 15 19 25 15 11 3 2 1 11 7 6 10 8 8 10 10 11 14 14 12 12 11 10 9 9 10 10 8 9 13 10 9 11 11 12 15 15 16 15 15 12 11 10 11 9
7 10 8 14 18 17 18 24 9 12 6 5 8 11 13 15 17 15 13 13 14 15 15 14 15 14 13 12 8 9 8 9 12 14 7 10 11 10 13 16 16 16 17 16 15 12 12 10 7
13 13 9 5 7 11 11 17 13 7 19 13 20 20 17 16 17 19 21 22 23 23 20 17 17 17 15 14 11 10 8 7 10 11 12 11 12 13 13 14 15 17 17 13 15 10 8 13 10
7 10 6 10 10 9 15 10 14 23 14 7 17 15 15 16 15 18 20 22 24 25 23 21 18 20 17 15 12 11 9 9 8 11 12 13 12 12 14 15 16 15 18 13 10 13 14 16 15
12 16 11 5 10 11 14 19 23 9 6 18 22 21 21 21 22 21 23 24 23 24 22 21 20 19 19 16 14 12 10 10 10 10 12 11 13 13 13 12 14 13 6 9 16 12 13 16 17
Wind_Direction
283 248 263 264 246 230 263 176 329 183 192 28 3 352 16 47 23 39 55 12 359 135 148 156 140 151 155 151 154 151 151 156 154 153 152 152 151 149 147 142 136 135 138 136 135 135 134 133 133
294 288 241 274 259 262 235 111 220 92 39 344 355 322 148 84 33 72 358 350 100 136 149 161 141 157 154 154 150 153 152 156 155 153 154 156 154 151 147 143 140 138 139 138 137 137 137 139 142
264 264 269 245 242 259 286 146 170 56 308 14 350 60 20 20 36 358 15 347 165 135 151 143 144 159 151 158 150 153 153 155 156 156 158 158 154 151 148 146 145 145 145 143 141 140 142 145 149
256 210 241 253 263 269 276 42 30 284 217 18 18 108 127 52 16 359 24 93 156 147 161 132 141 156 151 156 151 150 155 158 159 159 159 161 158 155 153 154 154 157 152 148 146 144 146 152 158
237 260 262 256 250 261 108 355 309 292 301 295 15 45 72 81 16 9 45 178 152 160 145 145 140 153 154 158 154 154 157 160 159 159 160 163 162 157 156 158 158 158 157 154 153 155 156 161 169
251 252 263 260 253 243 81 11 282 274 295 305 288 349 79 67 26 0 4 133 172 161 163 140 145 149 156 161 160 158 159 163 162 161 162 163 165 163 160 161 160 160 159 157 157 161 168 169 177
254 271 264 279 279 257 208 79 276 309 323 292 8 285 102 92 6 339 54 128 198 163 174 145 170 161 155 163 163 164 164 167 165 164 163 163 167 168 166 164 163 159 156 159 164 170 180 183 188
291 276 268 269 267 271 71 146 296 268 284 5 291 268 250 37 349 310 340 311 182 174 181 153 173 176 181 172 168 171 172 171 167 165 163 163 164 168 166 162 164 165 153 165 173 177 187 193 199
260 256 255 262 260 240 104 260 259 250 270 261 265 281 301 328 312 314 302 185 215 177 185 178 168 178 193 179 171 172 177 173 168 166 168 160 189 181 172 196 150 168 167 176 183 184 193 202 209
245 244 258 21 359 333 344 276 294 296 276 266 248 249 248 267 296 294 281 292 204 180 250 197 170 180 197 193 161 192 185 191 195 191 182 202 202 184 195 181 161 163 178 183 189 192 198 215 212
246 257 334 316 317 322 298 284 269 267 267 270 278 292 298 292 299 279 269 271 302 151 188 286 162 194 195 213 155 190 187 192 193 199 189 210 197 186 211 163 177 187 186 196 193 194 214 212 240
268 242 297 277 283 274 274 285 278 272 273 285 285 286 282 279 276 277 281 275 263 273 263 178 174 194 217 215 182 192 199 190 193 196 194 200 210 192 199 200 189 197 183 215 191 200 217 224 228
251 272 233 265 270 270 279 273 277 271 270 278 276 271 271 271 264 263 262 263 276 249 233 258 189 177 213 233 218 205 207 189 198 188 193 201 204 198 200 212 197 188 207 193 211 216 189 214 225
344 293 279 270 270 278 287 283 278 265 257 251 249 264 265 266 266 262 258 258 257 264 264 248 272 166 203 242 252 209 225 206 205 202 193 206 205 194 199 213 210 204 210 203 208 209 193 222 217
289 283 274 257 254 269 308 277 258 262 262 269 262 256 265 264 262 260 264 263 258 256 248 223 262 278 203 208 228 251 232 218 208 221 194 193 212 204 204 208 206 213 204 212 199 206 204 208 224
249 251 272 140 197 235 224 281 285 311 291 279 270 268 269 269 269 263 261 256 253 251 262 255 261 257 233 221 217 233 236 229 226 210 211 200 206 224 192 201 211 211 207 197 212 204 204 217 219
191 280 243 307 177 258 241 275 290 282 272 265 261 262 261 264 261 254 255 259 257 257 246 241 253 257 259 236 226 225 232 220 228 225 216 191 206 208 203 219 205 212 202 197 211 203 219 204 229
325 312 304 295 297 278 272 281 284 282 277 274 267 265 264 260 257 255 255 253 259 254 244 260 255 250 249 259 214 229 229 228 218 213 220 203 194 203 201 210 221 192 211 201 208 203 211 222 204
296 285 285 288 286 296 282 287 288 284 275 268 265 265 263 261 263 264 261 259 254 258 248 245 246 247 248 248 242 213 230 224 224 238 244 213 190 205 193 218 201 195 204 208 190 198 219 212 212
282 282 280 283 294 298 294 287 289 274 280 274 273 268 270 276 275 259 264 261 266 275 271 257 263 249 248 247 249 249 215 236 220 226 239 239 189 197 200 215 199 196 205 196 199 199 206 223 232
284 289 294 304 312 285 268 273 294 176 306 311 292 291 287 276 288 290 288 289 289 296 285 265 255 246 253 245 256 245 242 231 217 220 228 222 216 200 201 202 234 190 214 190 203 188 201 197 223
294 309 320 292 293 291 325 298 285 270 261 245 281 348 345 321 209 273 281 265 282 315 318 288 270 259 253 254 247 260 226 217 222 222 221 216 208 206 205 213 209 214 204 212 194 196 200 230 203
294 325 299 288 279 283 277 264 277 171 220 169 358 321 301 312 319 328 325 344 332 309 328 307 306 286 266 271 261 255 240 228 222 215 212 210 225 217 214 211 211 219 208 219 197 202 201 210 241
282 281 285 268 256 255 262 244 256 318 25 343 321 337 350 334 335 306 286 280 273 294 321 352 324 336 305 268 257 230 274 234 255 220 218 214 211 221 220 211 216 211 210 225 209 193 202 212 215
274 292 307 289 243 241 160 254 274 288 296 5 326 329 343 355 312 342 314 313 320 294 309 311 327 312 322 315 300 259 235 248 244 250 224 219 217 214 213 215 216 214 213 217 210 206 204 196 217
292 294 282 294 297 309 315 293 303 159 228 208 287 272 284 294 275 288 299 297 297 307 317 318 307 307 312 311 310 302 291 256 236 226 227 226 235 219 228 208 213 221 206 210 223 210 204 201 197
357 263 344 295 283 269 271 261 299 273 271 340 330 355 345 334 314 309 304 294 289 289 289 285 291 294 298 297 292 285 277 263 247 267 250 224 230 234 224 217 213 215 220 202 207 218 197 183 127
233 299 299 283 284 293 296 318 300 349 336 10 358 342 328 312 303 303 305 303 299 302 299 285 281 277 277 284 282 269 273 259 271 240 247 251 234 235 231 228 219 220 218 213 190 198 154 123 117
243 234 270 286 256 274 290 272 1 330 327 12 330 321 315 315 302 297 298 299 298 292 286 287 278 278 268 263 270 271 268 272 259 265 235 234 247 233 234 233 233 220 212 212 159 120 135 121 125
269 277 264 231 274 267 285 273 277 281 288 309 336 332 336 327 317 315 311 306 299 294 287 280 278 266 272 263 258 263 265 265 260 255 264 229 235 238 234 249 241 234 249 132 122 133 130 130 136